Air Force Academy, CO

9:28 PM MST on February 23, 2018 (GMT -0700)
Usaf Academy

Weather History for KAFF - November, 2013

Change the Weather History Date:

Thursday, November 7, 2013

  Actual Average Record
Temperature  
Mean Temperature 36 °F -  
Max Temperature 53 °F 49 °F 73 °F (2006)
Min Temperature 18 °F 26 °F 8 °F (2000)
Degree Days  
Heating Degree Days 30    
Moisture  
Dew Point 13 °F    
Average Humidity 44    
Maximum Humidity 70    
Minimum Humidity 22    
Precipitation  
Precipitation 0.00 in - - ()
Sea Level Pressure  
Sea Level Pressure 30.34 in    
Wind  
Wind Speed 8 mph (ENE)    
Max Wind Speed 14 mph    
Max Gust Speed 17 mph    
Visibility 10 miles    
Events      
Averages and records for this station are not official NWS values.
T = Trace of Precipitation, MM = Missing Value Source: NWS Daily Summary

Daily Weather History Graph

Daily Weather History Graph

Search for Another Location

Airport or City:

Trip Planner

Search our weather history database for the weather conditions in past years. The results will help you decide how hot, cold, wet, or windy it might be!

Date:

Astronomy

Nov. 07, 2013 Rise Set
Actual Time 6:33 AM MST 4:51 PM MST
Civil Twilight 6:05 AM MST 5:19 PM MST
Nautical Twilight 5:33 AM MST 5:51 PM MST
Astronomical Twilight 5:02 AM MST 6:23 PM MST
Moon 10:43 AM MST (11/7) 9:06 PM MST (11/7)
Length of Visible Light 11h 14m
Length of Day
10h 18m
Waxing Crescent, 23% of the Moon is Illuminated
Nov 7
Waxing Crescent
Nov 9
First Quarter
Nov 17
Full
Nov 25
Last Quarter
Dec 2
New

Hourly Weather History & Observations

Time (MST) Temp. Windchill Dew Point Humidity Pressure Visibility Wind Dir Wind Speed Gust Speed Precip Events Conditions
12:58 AM 27.7 °F 20.4 °F 10.0 °F 48% 30.37 in 10.0 mi ESE 6.9 mph - N/A   Clear
1:58 AM 21.9 °F 11.0 °F 9.7 °F 59% 30.43 in 10.0 mi North 10.4 mph - N/A   Clear
2:58 AM 21.7 °F 14.3 °F 10.2 °F 61% 30.44 in 10.0 mi North 5.8 mph - N/A   Clear
3:58 AM 18.0 °F 6.9 °F 9.5 °F 70% 30.46 in 10.0 mi North 9.2 mph - N/A   Clear
4:58 AM 19.9 °F 7.9 °F 10.2 °F 66% 30.49 in 10.0 mi North 11.5 mph - N/A   Clear
5:58 AM 21.0 °F 13.4 °F 10.6 °F 64% 30.49 in 10.0 mi NNE 5.8 mph - N/A   Clear
6:58 AM 20.1 °F 9.5 °F 10.8 °F 67% 30.53 in 10.0 mi North 9.2 mph - N/A   Clear
7:58 AM 28.6 °F 21.5 °F 13.5 °F 53% 30.49 in 10.0 mi NNW 6.9 mph - N/A   Clear
8:58 AM 37.6 °F - 12.4 °F 36% 30.44 in 10.0 mi Calm Calm - N/A   Clear
9:58 AM 44.4 °F 41.2 °F 12.6 °F 28% 30.41 in 10.0 mi SSE 5.8 mph - N/A   Clear
10:58 AM 47.8 °F - 12.9 °F 25% 30.38 in 10.0 mi SSE 11.5 mph - N/A   Clear
11:58 AM 48.9 °F - 13.1 °F 24% 30.32 in 10.0 mi South 5.8 mph - N/A   Clear
12:58 PM 51.6 °F - 13.1 °F 22% 30.28 in 10.0 mi South 8.1 mph - N/A   Clear
1:58 PM 52.9 °F - 14.4 °F 22% 30.29 in 10.0 mi South 12.7 mph 17.3 mph N/A   Clear
2:47 PM 53.6 °F - 15.8 °F 22% 30.26 in 10.0 mi South 13.8 mph - N/A   Clear
2:58 PM 52.5 °F - 16.0 °F 24% 30.28 in 10.0 mi SSE 12.7 mph - N/A   Clear
3:58 PM 50.7 °F - 15.6 °F 25% 30.30 in 10.0 mi SSE 12.7 mph - N/A   Clear
4:58 PM 45.7 °F 41.0 °F 13.6 °F 28% 30.29 in 10.0 mi SE 9.2 mph - N/A   Clear
5:58 PM 41.9 °F 40.0 °F 14.4 °F 33% 30.31 in 10.0 mi South 3.5 mph - N/A   Clear
6:58 PM 32.4 °F 27.9 °F 13.3 °F 45% 30.35 in 10.0 mi NW 4.6 mph - N/A   Clear
7:58 PM 32.2 °F 27.7 °F 13.3 °F 46% 30.30 in 10.0 mi Variable 4.6 mph - N/A   Clear
8:58 PM 27.9 °F 19.8 °F 14.0 °F 56% 30.23 in 10.0 mi North 8.1 mph - N/A   Clear
9:58 PM 28.6 °F 19.9 °F 14.2 °F 55% 30.16 in 10.0 mi North 9.2 mph - N/A   Clear
10:58 PM 27.5 °F 18.6 °F 14.5 °F 58% 30.14 in 10.0 mi North 9.2 mph - N/A   Clear
11:58 PM 28.2 °F 18.9 °F 14.9 °F 57% 30.09 in 10.0 mi North 10.4 mph - N/A   Clear